When you browse on this site, cookies collect data to enhance your experience and personalize the content and advertising you see.
Visit our Privacy Policy to learn more. By continuing to use the site, you agree to this use of cookies and data.
  • In Deutschland
  • Länderverzeichnis
  • Für 7 Tage
  • Wassertemperatur
  • Satellitenkarten
  • Wetterkarte
  • Widgets
  • user-avatar
    Anmelden

    Stündliche Wetter Krefeld

    Heute, 23 Januar, Mittwoch

    Zeit Temperatur Niederschläge Wind Luftdruck Luftfeuchtigkeit
    00:00 -2°C° 0 mm 3 m/S 746 mmHg 83%
    01:00 -4°C° 0 mm 3 m/S 746 mmHg 83%
    02:00 -4°C° 0 mm 3 m/S 745 mmHg 82%
    03:00 -3°C° 0 mm 2 m/S 745 mmHg 81%
    04:00 -3°C° 0 mm 2 m/S 745 mmHg 79%
    05:00 -3°C° 0 mm 2 m/S 745 mmHg 78%
    06:00 -2°C° 0 mm 2 m/S 744 mmHg 76%
    07:00 -2°C° 0 mm 2 m/S 745 mmHg 76%
    08:00 -2°C° 0 mm 2 m/S 745 mmHg 75%
    09:00 -2°C° 0 mm 2 m/S 745 mmHg 75%
    10:00 -1°C° 0 mm 2 m/S 745 mmHg 73%
    11:00 -1°C° 0 mm 2 m/S 746 mmHg 71%
    12:00 +1°C° 0 mm 2 m/S 746 mmHg 68%
    13:00 +1°C° 0 mm 2 m/S 746 mmHg 69%
    14:00 +1°C° 0 mm 2 m/S 746 mmHg 69%
    15:00 +2°C° 0 mm 1 m/S 746 mmHg 70%
    16:00 +1°C° 0 mm 1 m/S 747 mmHg 71%
    17:00 -2°C° 0 mm 2 m/S 747 mmHg 73%
    18:00 -3°C° 0 mm 2 m/S 748 mmHg 75%
    19:00 -1°C° 0 mm 1 m/S 748 mmHg 75%
    20:00 -1°C° 0 mm 1 m/S 749 mmHg 75%
    21:00 -1°C° 0 mm 1 m/S 749 mmHg 76%
    22:00 -1°C° 0 mm 1 m/S 749 mmHg 76%
    23:00 -2°C° 0 mm 1 m/S 750 mmHg 77%

    Morgen, 24 Januar, Donnerstag

    Zeit Temperatur Niederschläge Wind Luftdruck Luftfeuchtigkeit
    00:00 -4°C° 0 mm 2 m/S 750 mmHg 78%
    01:00 -2°C° 0 mm 1 m/S 750 mmHg 78%
    02:00 -2°C° 0 mm 1 m/S 751 mmHg 78%
    03:00 -2°C° 0 mm 1 m/S 751 mmHg 78%
    04:00 -2°C° 0 mm 1 m/S 751 mmHg 78%
    05:00 -2°C° 0 mm 1 m/S 751 mmHg 78%
    06:00 -2°C° 0 mm 1 m/S 751 mmHg 78%
    07:00 -2°C° 0 mm 1 m/S 752 mmHg 77%
    08:00 -2°C° 0 mm 1 m/S 752 mmHg 75%
    09:00 -2°C° 0 mm 1 m/S 753 mmHg 73%
    10:00 -1°C° 0 mm 1 m/S 753 mmHg 69%
    11:00 0°C° 0 mm 1 m/S 753 mmHg 65%
    12:00 +1°C° 0 mm 1 m/S 753 mmHg 60%
    13:00 +1°C° 0 mm 1 m/S 753 mmHg 61%
    14:00 +1°C° 0 mm 1 m/S 753 mmHg 62%
    15:00 0°C° 0 mm 1 m/S 753 mmHg 63%
    16:00 0°C° 0 mm 1 m/S 753 mmHg 66%
    17:00 -1°C° 0 mm 1 m/S 754 mmHg 69%
    18:00 -1°C° 0 mm 1 m/S 754 mmHg 72%
    19:00 -1°C° 0 mm 1 m/S 755 mmHg 72%
    20:00 -2°C° 0 mm 1 m/S 755 mmHg 71%
    21:00 -2°C° 0 mm 1 m/S 755 mmHg 71%
    22:00 -2°C° 0 mm 1 m/S 756 mmHg 71%
    23:00 -2°C° 0 mm 1 m/S 756 mmHg 71%

    übermorgen, 25 Januar, Freitag

    Zeit Temperatur Niederschläge Wind Luftdruck Luftfeuchtigkeit
    00:00 -2°C° 0 mm 1 m/S 756 mmHg 71%
    01:00 -2°C° 0 mm 1 m/S 756 mmHg 72%
    02:00 -3°C° 0 mm 1 m/S 757 mmHg 72%
    03:00 -3°C° 0 mm 1 m/S 757 mmHg 73%
    04:00 -5°C° 0 mm 2 m/S 757 mmHg 74%
    05:00 -5°C° 0 mm 2 m/S 758 mmHg 75%
    06:00 -5°C° 0 mm 2 m/S 758 mmHg 76%
    07:00 -5°C° 0 mm 2 m/S 759 mmHg 75%
    08:00 -5°C° 0 mm 2 m/S 759 mmHg 74%
    09:00 -5°C° 0 mm 2 m/S 760 mmHg 73%
    10:00 -4°C° 0 mm 2 m/S 760 mmHg 70%
    11:00 -3°C° 0 mm 2 m/S 760 mmHg 66%
    12:00 -3°C° 0 mm 2 m/S 761 mmHg 62%
    13:00 -3°C° 0 mm 2 m/S 761 mmHg 62%
    14:00 -3°C° 0 mm 2 m/S 761 mmHg 62%
    15:00 -3°C° 0 mm 2 m/S 761 mmHg 62%
    16:00 -3°C° 0 mm 2 m/S 762 mmHg 64%
    17:00 -4°C° 0 mm 2 m/S 763 mmHg 66%
    18:00 -4°C° 0 mm 2 m/S 763 mmHg 69%
    19:00 -2°C° 0 mm 1 m/S 764 mmHg 69%
    20:00 -3°C° 0 mm 1 m/S 764 mmHg 70%
    21:00 -3°C° 0 mm 1 m/S 764 mmHg 71%
    22:00 -4°C° 0 mm 0 m/S 764 mmHg 71%
    23:00 -4°C° 0 mm 0 m/S 764 mmHg 72%

    26 Januar, Samstag

    Zeit Temperatur Niederschläge Wind Luftdruck Luftfeuchtigkeit
    00:00 -4°C° 0 mm 0 m/S 764 mmHg 72%
    01:00 -4°C° 0 mm 0 m/S 764 mmHg 72%
    02:00 -4°C° 0 mm 0 m/S 764 mmHg 73%
    03:00 -4°C° 0 mm 0 m/S 764 mmHg 73%
    04:00 -3°C° 0 mm 1 m/S 764 mmHg 74%
    05:00 -4°C° 0 mm 1 m/S 763 mmHg 74%
    06:00 -4°C° 0 mm 1 m/S 763 mmHg 75%
    07:00 -5°C° 0 mm 2 m/S 763 mmHg 72%
    08:00 -5°C° 0 mm 2 m/S 763 mmHg 70%
    09:00 -5°C° 0 mm 2 m/S 763 mmHg 68%
    10:00 -4°C° 0 mm 2 m/S 762 mmHg 63%
    11:00 -3°C° 0 mm 2 m/S 761 mmHg 58%
    12:00 -2°C° 0 mm 3 m/S 761 mmHg 52%
    13:00 -1°C° 0 mm 3 m/S 760 mmHg 53%
    14:00 -1°C° 0 mm 3 m/S 759 mmHg 53%
    15:00 -1°C° 0 mm 3 m/S 758 mmHg 53%
    16:00 -1°C° 0 mm 3 m/S 758 mmHg 56%
    17:00 -2°C° 0 mm 3 m/S 757 mmHg 58%
    18:00 -3°C° 0 mm 4 m/S 756 mmHg 61%
    19:00 -3°C° 0 mm 4 m/S 756 mmHg 58%
    20:00 -3°C° 0 mm 4 m/S 755 mmHg 56%
    21:00 -4°C° 0 mm 5 m/S 754 mmHg 53%
    22:00 -4°C° 0.1 mm 5 m/S 754 mmHg 57%
    23:00 -2°C° 0.1 mm 5 m/S 753 mmHg 60%

    27 Januar, Sonntag

    Zeit Temperatur Niederschläge Wind Luftdruck Luftfeuchtigkeit
    00:00 -2°C° 0.1 mm 5 m/S 752 mmHg 63%
    01:00 -2°C° 0.2 mm 5 m/S 751 mmHg 70%
    02:00 -2°C° 0.2 mm 4 m/S 750 mmHg 76%
    03:00 -1°C° 0.2 mm 4 m/S 750 mmHg 83%
    04:00 -1°C° 0.3 mm 4 m/S 749 mmHg 85%
    05:00 -1°C° 0.3 mm 4 m/S 749 mmHg 88%
    06:00 -1°C° 0.3 mm 5 m/S 748 mmHg 90%
    07:00 -1°C° 0.3 mm 5 m/S 748 mmHg 90%
    08:00 0°C° 0.3 mm 5 m/S 748 mmHg 90%
    09:00 0°C° 0.3 mm 5 m/S 748 mmHg 90%
    10:00 0°C° 0.3 mm 5 m/S 748 mmHg 89%
    11:00 +1°C° 0.3 mm 5 m/S 749 mmHg 87%
    12:00 +1°C° 0.3 mm 5 m/S 749 mmHg 86%
    13:00 +1°C° 0.1 mm 4 m/S 749 mmHg 85%
    14:00 +1°C° 0.1 mm 4 m/S 749 mmHg 83%
    15:00 +1°C° 0.1 mm 4 m/S 749 mmHg 82%
    16:00 0°C° 0 mm 4 m/S 749 mmHg 83%
    17:00 -1°C° 0 mm 5 m/S 749 mmHg 85%
    18:00 -1°C° 0 mm 5 m/S 749 mmHg 87%
    19:00 -1°C° 0.4 mm 5 m/S 749 mmHg 89%
    20:00 -1°C° 0.4 mm 4 m/S 749 mmHg 91%
    21:00 -1°C° 0.4 mm 4 m/S 749 mmHg 93%
    22:00 -1°C° 1 mm 5 m/S 749 mmHg 92%
    23:00 0°C° 1 mm 5 m/S 749 mmHg 91%

    28 Januar, Montag

    Zeit Temperatur Niederschläge Wind Luftdruck Luftfeuchtigkeit
    00:00 0°C° 1 mm 5 m/S 750 mmHg 90%
    01:00 0°C° 0.6 mm 5 m/S 750 mmHg 89%
    02:00 0°C° 0.6 mm 5 m/S 750 mmHg 88%
    03:00 -1°C° 0.6 mm 4 m/S 750 mmHg 88%
    04:00 -1°C° 0 mm 4 m/S 750 mmHg 88%
    05:00 -1°C° 0 mm 4 m/S 751 mmHg 89%
    06:00 -1°C° 0 mm 4 m/S 751 mmHg 89%
    07:00 -1°C° 0.1 mm 4 m/S 752 mmHg 91%
    08:00 0°C° 0.1 mm 3 m/S 753 mmHg 93%
    09:00 0°C° 0.1 mm 3 m/S 753 mmHg 94%
    10:00 +1°C° 0 mm 3 m/S 754 mmHg 95%
    11:00 +1°C° 0 mm 3 m/S 754 mmHg 95%
    12:00 +2°C° 0 mm 3 m/S 755 mmHg 95%
    13:00 +2°C° 0.1 mm 3 m/S 755 mmHg 94%
    14:00 +2°C° 0.1 mm 3 m/S 756 mmHg 94%
    15:00 +3°C° 0.1 mm 2 m/S 756 mmHg 94%
    16:00 +2°C° 0 mm 2 m/S 757 mmHg 93%
    17:00 +1°C° 0 mm 3 m/S 758 mmHg 92%
    18:00 +1°C° 0 mm 3 m/S 759 mmHg 91%
    19:00 0°C° 0 mm 3 m/S 759 mmHg 91%
    20:00 0°C° 0 mm 3 m/S 760 mmHg 91%
    21:00 -1°C° 0 mm 3 m/S 761 mmHg 90%
    22:00 -1°C° 0 mm 3 m/S 761 mmHg 91%
    23:00 0°C° 0 mm 3 m/S 761 mmHg 92%
    Mehr zeigen